Track IRIDIUM 132 now! 10-day predictions IRIDIUM 132 is classified as:
1 42961U 17061G 26022.61493585 .00000733 00000-0 25466-3 0 9999 2 42961 86.3942 86.1298 0002283 93.4510 266.6947 14.34219535433958